This is the latest recevied weather packets stored in our database for station/object N4JTC. If no packets are shown the sender has not sent any weather packets the latest 10 day(s).
| Time | Temp. | Humidity | Pressure | Rain* | Wind** | Luminosity | Snow |
|---|---|---|---|---|---|---|---|
| 1777688103 | 17.22° C | 96% | 1012.1 hPa | 0 mm | - | 0 W/m² | - |
| 1777687803 | 16.67° C | 96% | 1011.9 hPa | 0 mm | - | 0 W/m² | - |
| 1777687503 | 16.67° C | 96% | 1012.2 hPa | 0 mm | - | 0 W/m² | - |
| 1777687203 | 16.67° C | 96% | 1012 hPa | 0 mm | - | 0 W/m² | - |
| 1777686903 | 16.67° C | 96% | 1011.9 hPa | 0 mm | - | 0 W/m² | - |
| 1777686303 | 16.67° C | 96% | 1012.1 hPa | 10.16 mm | - | 0 W/m² | - |
| 1777686003 | 16.67° C | 96% | 1011.8 hPa | 10.67 mm | - | 0 W/m² | - |
| 1777685703 | 16.67° C | 96% | 1011.9 hPa | 3.56 mm | - | 0 W/m² | - |
| 1777685103 | 16.67° C | 96% | 1012 hPa | 0 mm | - | 0 W/m² | - |
| 1777684803 | 16.67° C | 96% | 1012 hPa | 0 mm | - | 0 W/m² | - |
| 1777684503 | 16.67° C | 95% | 1011.8 hPa | 0 mm | - | 0 W/m² | - |
| 1777684203 | 16.67° C | 95% | 1012 hPa | 0 mm | - | 0 W/m² | - |
| 1777683903 | 16.67° C | 95% | 1011.6 hPa | 0 mm | - | 0 W/m² | - |
| 1777683603 | 16.67° C | 95% | 1012 hPa | 0 mm | - | 0 W/m² | - |
| 1777683303 | 16.67° C | 95% | 1011.8 hPa | 0 mm | - | 0 W/m² | - |
| 1777683003 | 16.67° C | 95% | 1012 hPa | 0 mm | - | 0 W/m² | - |
| 1777682703 | 16.67° C | 95% | 1011.9 hPa | 0 mm | - | 0 W/m² | - |
| 1777682403 | 16.67° C | 95% | 1011.8 hPa | 0 mm | - | 0 W/m² | - |
| 1777682104 | 16.67° C | 95% | 1011.5 hPa | 1.27 mm | - | 0 W/m² | - |
| 1777681803 | 16.67° C | 95% | 1011.3 hPa | 1.27 mm | - | 0 W/m² | - |
| 1777681503 | 16.67° C | 95% | 1011.6 hPa | 0 mm | - | 0 W/m² | - |
| 1777681203 | 16.67° C | 95% | 1011.4 hPa | 0 mm | - | 0 W/m² | - |
| 1777680903 | 16.67° C | 95% | 1011.1 hPa | 0 mm | - | 0 W/m² | - |
| 1777680303 | 16.67° C | 95% | 1011.3 hPa | 0 mm | - | 0 W/m² | - |
| 1777680003 | 16.67° C | 95% | 1011 hPa | 0 mm | - | 2 W/m² | - |
* Rain latest hour (hover to see other rain measurements)
** Current wind speed in m/s (hover to see current wind gust speed)